NORTHERN NASSAU  -  Areal Flood Advisory Areal Flood Advisory     Flash Flood Watch Flash Flood Watch     Rip Current Statement Rip Current Statement        NORTHERN QUEENS  -  Areal Flood Advisory Areal Flood Advisory     Flash Flood Watch Flash Flood Watch     Rip Current Statement Rip Current Statement        SOUTHERN NASSAU  -  Areal Flood Advisory Areal Flood Advisory     Flash Flood Watch Flash Flood Watch     Rip Current Statement Rip Current Statement        SOUTHERN QUEENS  -  Areal Flood Advisory Areal Flood Advisory     Flash Flood Watch Flash Flood Watch     Rip Current Statement Rip Current Statement        NORTHEAST SUFFOLK  -  Rip Current Statement Rip Current Statement        NORTHWEST SUFFOLK  -  Rip Current Statement Rip Current Statement        SOUTHEAST SUFFOLK  -  Rip Current Statement Rip Current Statement        SOUTHWEST SUFFOLK  -  Rip Current Statement Rip Current Statement      

Active alerts

Northern Queens
  Details for Northern Queens Areal Flood Advisory  +2 additional alerts
Southern Queens
  Details for Southern Queens Areal Flood Advisory  +2 additional alerts
Northern Nassau
  Details for Northern Nassau Areal Flood Advisory  +2 additional alerts
Southern Nassau
  Details for Southern Nassau Areal Flood Advisory  +2 additional alerts
Northwest Suffolk
  Details for Northwest Suffolk Rip Current Statement
Southwest Suffolk
  Details for Southwest Suffolk Rip Current Statement
Northeast Suffolk
  Details for Northeast Suffolk Rip Current Statement
Southeast Suffolk
  Details for Southeast Suffolk Rip Current Statement


WXM80 ListenWXM80 Stop

You find our weather info also at:

UK Metoffice

WeatherCloud

Weather Underground

Northeastern Weather Network

AWEKAS

Citizen Weather Observer Program (CWOP)

HAMweather, WeatherForYou, PWS Weather


Weather Underground History page Text

Daily Summary for February 15, 2018 Units:  English    Metric   Both
« Previous Day
Next Day »
Daily Weekly Monthly Yearly Custom
  High: Low: Average:
Temperature: 57.3 °F 43.7 °F 50.1 °F
Dew Point: 52.9 °F 42.1 °F 47.6 °F
Humidity: 97 % 80 % 91 %
Wind Speed: 8.0 mph 0.0 mph 1.9 mph
Wind Gust: 18.4 mph - -
Wind:- - SW
Pressure: 29.79 in 29.40 in -
Precipitation: 0.02 in    
Historical Graphs
 
 
Tabular Data for February 15, 2018
Time Temperature Dew Point Pressure Wind Wind Speed Wind Gust Humidity Rainfall Rate (Hourly)
00:01 44.9 °F 42.1 °F 29.79 in SSW 2.0 mph 4.0 mph 90 % 0.00 in
00:06 44.9 °F 42.4 °F 29.79 in SSW 2.0 mph 5.0 mph 91 % 0.00 in
00:11 44.8 °F 42.3 °F 29.78 in Calm   4.0 mph 91 % 0.00 in
00:16 44.7 °F 42.2 °F 29.78 in SSW 1.0 mph 4.0 mph 91 % 0.00 in
00:21 44.7 °F 42.2 °F 29.79 in SSW 3.0 mph 6.0 mph 91 % 0.00 in
00:26 44.6 °F 42.4 °F 29.79 in SSW 2.0 mph 5.0 mph 92 % 0.00 in
00:31 44.5 °F 42.3 °F 29.79 in SSW 2.0 mph 5.0 mph 92 % 0.00 in
00:36 44.5 °F 42.3 °F 29.79 in SSW 2.0 mph 6.0 mph 92 % 0.00 in
00:41 44.4 °F 42.2 °F 29.78 in SSW 1.0 mph 5.0 mph 92 % 0.00 in
00:46 44.3 °F 42.1 °F 29.78 in SSW 2.0 mph 4.0 mph 92 % 0.00 in
00:51 44.3 °F 42.1 °F 29.78 in SW 2.0 mph 6.0 mph 92 % 0.00 in
00:56 44.3 °F 42.4 °F 29.78 in Calm   3.0 mph 93 % 0.00 in
01:01 44.2 °F 42.3 °F 29.78 in Calm   2.3 mph 93 % 0.00 in
01:06 44.2 °F 42.3 °F 29.78 in WSW 1.4 mph 4.6 mph 93 % 0.00 in
01:11 44.2 °F 42.3 °F 29.78 in SW 1.7 mph 3.5 mph 93 % 0.00 in
01:16 44.2 °F 42.3 °F 29.78 in SW 0.2 mph 2.3 mph 93 % 0.00 in
01:21 44.2 °F 42.3 °F 29.77 in Calm     93 % 0.00 in
01:26 44.3 °F 42.4 °F 29.76 in SW 1.4 mph 3.5 mph 93 % 0.00 in
01:31 44.3 °F 42.4 °F 29.76 in SW 2.1 mph 3.5 mph 93 % 0.00 in
01:36 44.3 °F 42.4 °F 29.76 in SSW 1.7 mph 4.6 mph 93 % 0.00 in
01:41 44.3 °F 42.7 °F 29.76 in SSW 1.9 mph 3.5 mph 94 % 0.00 in
01:46 44.3 °F 42.7 °F 29.75 in SSW 1.6 mph 3.5 mph 94 % 0.00 in
01:51 44.3 °F 42.7 °F 29.75 in SSW 1.6 mph 2.3 mph 94 % 0.00 in
01:56 44.3 °F 42.7 °F 29.75 in SSW 0.7 mph 2.0 mph 94 % 0.00 in
02:01 44.4 °F 42.8 °F 29.75 in SSW 2.0 mph 5.0 mph 94 % 0.00 in
02:06 44.4 °F 42.8 °F 29.75 in SSW 3.9 mph 7.0 mph 94 % 0.00 in
02:11 44.5 °F 42.9 °F 29.75 in SSW 2.7 mph 4.6 mph 94 % 0.00 in
02:17 44.5 °F 42.9 °F 29.74 in SSW 3.6 mph 6.9 mph 94 % 0.00 in
02:22 44.5 °F 42.9 °F 29.74 in SSW 4.9 mph 5.8 mph 94 % 0.00 in
02:27 44.5 °F 42.9 °F 29.74 in SSW 2.7 mph 4.6 mph 94 % 0.00 in
02:32 44.5 °F 43.2 °F 29.74 in SW 1.8 mph 3.5 mph 95 % 0.00 in
02:37 44.4 °F 43.1 °F 29.74 in SSW 2.4 mph 4.6 mph 95 % 0.00 in
02:42 44.4 °F 43.1 °F 29.73 in SSW 1.2 mph 3.5 mph 95 % 0.00 in
02:47 44.3 °F 43.0 °F 29.74 in SW 1.4 mph 3.5 mph 95 % 0.00 in
02:52 44.3 °F 43.0 °F 29.73 in SW 1.0 mph 2.3 mph 95 % 0.00 in
02:57 44.3 °F 43.0 °F 29.73 in SW 0.3 mph 2.0 mph 95 % 0.00 in
03:02 44.2 °F 42.6 °F 29.72 in Calm     94 % 0.00 in
03:07 44.2 °F 42.6 °F 29.72 in SW 0.5 mph 1.2 mph 94 % 0.00 in
03:12 44.2 °F 42.6 °F 29.72 in SW 0.8 mph 3.0 mph 94 % 0.00 in
03:17 44.2 °F 42.6 °F 29.72 in Calm     94 % 0.00 in
03:22 44.2 °F 42.6 °F 29.72 in SW 0.5 mph 2.3 mph 94 % 0.00 in
03:27 44.1 °F 42.5 °F 29.71 in Calm   1.2 mph 94 % 0.00 in
03:32 44.1 °F 42.5 °F 29.71 in Calm     94 % 0.00 in
03:37 44.1 °F 42.5 °F 29.71 in Calm     94 % 0.01 in
03:42 44.1 °F 42.5 °F 29.71 in Calm     94 % 0.01 in
03:47 44.0 °F 42.4 °F 29.71 in Calm     94 % 0.02 in
03:52 44.1 °F 42.8 °F 29.71 in SW 0.1 mph   95 % 0.02 in
03:58 44.1 °F 42.8 °F 29.71 in Calm   1.2 mph 95 % 0.02 in
04:03 44.1 °F 42.8 °F 29.71 in SW 0.5 mph 3.5 mph 95 % 0.02 in
04:08 44.1 °F 42.8 °F 29.71 in SW 0.3 mph 2.3 mph 95 % 0.02 in
04:13 44.1 °F 42.8 °F 29.71 in SW 0.6 mph 2.3 mph 95 % 0.02 in
04:18 44.1 °F 42.8 °F 29.71 in SW 0.1 mph 1.2 mph 95 % 0.02 in
04:23 44.1 °F 42.8 °F 29.71 in SW 0.8 mph 2.0 mph 95 % 0.02 in
04:28 44.1 °F 42.8 °F 29.71 in SW 0.2 mph 2.0 mph 95 % 0.02 in
04:33 44.1 °F 42.8 °F 29.71 in SW 2.6 mph 3.5 mph 95 % 0.01 in
04:38 44.1 °F 42.8 °F 29.71 in SW 1.5 mph 3.5 mph 95 % 0.01 in
04:43 44.0 °F 42.7 °F 29.71 in Calm   2.3 mph 95 % 0.01 in
04:48 44.0 °F 42.7 °F 29.71 in SSW 1.9 mph 1.9 mph 95 % 0.00 in
04:54 44.0 °F 42.7 °F 29.71 in SSW 0.9 mph 3.5 mph 95 % 0.00 in
04:59 44.0 °F 42.7 °F 29.70 in SSE 1.5 mph 4.0 mph 95 % 0.00 in
05:04 43.9 °F 42.6 °F 29.70 in Calm   1.2 mph 95 % 0.00 in
05:09 43.9 °F 42.6 °F 29.70 in Calm   1.2 mph 95 % 0.00 in
05:14 43.9 °F 42.6 °F 29.69 in SSW 1.3 mph 3.5 mph 95 % 0.00 in
05:19 43.8 °F 42.5 °F 29.69 in SSW 1.4 mph 3.5 mph 95 % 0.00 in
05:24 43.8 °F 42.5 °F 29.69 in SSW 1.7 mph 4.6 mph 95 % 0.00 in
05:29 43.8 °F 42.5 °F 29.69 in South 0.2 mph 1.2 mph 95 % 0.00 in
05:34 43.8 °F 42.5 °F 29.69 in South 2.5 mph 5.8 mph 95 % 0.00 in
05:39 43.8 °F 42.5 °F 29.69 in South 0.4 mph 3.5 mph 95 % 0.00 in
05:44 43.7 °F 42.4 °F 29.68 in South 1.1 mph 4.0 mph 95 % 0.00 in
05:49 43.7 °F 42.4 °F 29.68 in South 2.0 mph 3.0 mph 95 % 0.00 in
05:54 43.7 °F 42.6 °F 29.68 in SSW 1.7 mph 2.3 mph 96 % 0.00 in
05:59 43.7 °F 42.6 °F 29.68 in Calm     96 % 0.00 in
06:04 43.8 °F 42.7 °F 29.67 in SW 0.5 mph 3.5 mph 96 % 0.00 in
06:09 43.8 °F 42.7 °F 29.68 in SW 2.1 mph 2.3 mph 96 % 0.00 in
06:14 43.8 °F 42.7 °F 29.67 in SSW 1.7 mph 4.0 mph 96 % 0.00 in
06:19 43.8 °F 42.7 °F 29.68 in SSW 3.2 mph 3.5 mph 96 % 0.00 in
06:24 43.7 °F 42.6 °F 29.67 in South 2.7 mph 4.6 mph 96 % 0.00 in
06:30 43.7 °F 42.6 °F 29.67 in WSW 3.1 mph 4.6 mph 96 % 0.00 in
06:35 43.7 °F 42.6 °F 29.67 in SW 1.1 mph 3.5 mph 96 % 0.00 in
06:40 43.7 °F 42.6 °F 29.67 in WSW 1.3 mph 3.5 mph 96 % 0.00 in
06:45 43.7 °F 42.6 °F 29.67 in SW 2.8 mph 4.6 mph 96 % 0.00 in
06:50 43.7 °F 42.6 °F 29.67 in SW 2.3 mph 3.5 mph 96 % 0.00 in
06:55 43.7 °F 42.6 °F 29.67 in SSW 1.0 mph 2.3 mph 96 % 0.00 in
07:00 43.8 °F 42.7 °F 29.67 in SW 3.3 mph 5.0 mph 96 % 0.00 in
07:05 43.8 °F 42.7 °F 29.67 in SW 4.4 mph 4.6 mph 96 % 0.00 in
07:10 43.8 °F 42.7 °F 29.66 in SW 2.4 mph 3.5 mph 96 % 0.00 in
07:15 43.8 °F 42.7 °F 29.67 in SW 1.8 mph 3.5 mph 96 % 0.00 in
07:20 43.9 °F 42.8 °F 29.67 in SW 0.6 mph 2.0 mph 96 % 0.00 in
07:25 44.0 °F 42.9 °F 29.67 in SW 0.1 mph   96 % 0.00 in
07:30 44.1 °F 43.0 °F 29.67 in SSW 3.3 mph 6.0 mph 96 % 0.00 in
07:35 44.2 °F 43.1 °F 29.67 in SSW 1.9 mph 3.5 mph 96 % 0.00 in
07:40 44.3 °F 43.2 °F 29.67 in SSW 0.3 mph 4.0 mph 96 % 0.00 in
07:45 44.3 °F 43.2 °F 29.67 in SSW 0.6 mph 2.3 mph 96 % 0.00 in
07:50 44.4 °F 43.3 °F 29.67 in Calm     96 % 0.00 in
07:56 44.5 °F 43.4 °F 29.67 in SSW 1.0 mph 3.0 mph 96 % 0.00 in
08:01 44.6 °F 43.5 °F 29.67 in South 1.5 mph 3.5 mph 96 % 0.00 in
08:06 44.7 °F 43.9 °F 29.67 in South 1.2 mph 4.6 mph 97 % 0.00 in
08:11 44.8 °F 44.0 °F 29.67 in SSW 2.2 mph 6.9 mph 97 % 0.00 in
08:16 44.9 °F 43.8 °F 29.67 in SW 1.3 mph 4.6 mph 96 % 0.00 in
08:21 45.1 °F 44.3 °F 29.67 in WSW 0.9 mph 4.6 mph 97 % 0.00 in
08:26 45.3 °F 44.5 °F 29.67 in SW 0.8 mph 3.5 mph 97 % 0.00 in
08:31 45.4 °F 44.6 °F 29.67 in SW 0.9 mph 3.5 mph 97 % 0.00 in
08:36 45.6 °F 44.8 °F 29.66 in South 0.6 mph 3.5 mph 97 % 0.00 in
08:41 45.8 °F 45.0 °F 29.67 in South 0.4 mph 1.2 mph 97 % 0.00 in
08:46 46.0 °F 45.2 °F 29.66 in Calm     97 % 0.00 in
08:51 46.2 °F 45.4 °F 29.67 in South 0.1 mph 1.0 mph 97 % 0.00 in
08:56 46.3 °F 45.5 °F 29.66 in South 1.6 mph 3.5 mph 97 % 0.00 in
09:01 46.5 °F 45.7 °F 29.66 in West 1.3 mph 3.5 mph 97 % 0.00 in
09:06 46.7 °F 45.9 °F 29.66 in South 2.8 mph 3.5 mph 97 % 0.00 in
09:11 46.9 °F 46.1 °F 29.65 in SSW 2.2 mph 3.5 mph 97 % 0.00 in
09:16 47.1 °F 46.3 °F 29.65 in Calm     97 % 0.00 in
09:22 47.3 °F 46.5 °F 29.65 in SW 1.1 mph 2.0 mph 97 % 0.00 in
09:27 47.5 °F 46.7 °F 29.66 in Calm   3.5 mph 97 % 0.00 in
09:32 47.7 °F 46.9 °F 29.65 in SSW 3.6 mph 7.0 mph 97 % 0.00 in
09:37 47.8 °F 47.0 °F 29.65 in South 0.9 mph 3.5 mph 97 % 0.00 in
09:42 48.1 °F 47.3 °F 29.65 in SSW 3.7 mph 4.6 mph 97 % 0.00 in
09:47 48.3 °F 47.5 °F 29.65 in SSW 0.6 mph 3.5 mph 97 % 0.00 in
09:52 48.5 °F 47.7 °F 29.65 in SW 1.1 mph 3.5 mph 97 % 0.00 in
09:57 48.7 °F 47.9 °F 29.65 in SSW 3.4 mph 9.2 mph 97 % 0.00 in
10:02 48.8 °F 48.0 °F 29.64 in SSW 3.7 mph 8.0 mph 97 % 0.00 in
10:07 49.1 °F 48.3 °F 29.64 in SW 4.3 mph 8.1 mph 97 % 0.00 in
10:12 49.6 °F 48.8 °F 29.64 in SW 3.9 mph 5.0 mph 97 % 0.00 in
10:17 49.7 °F 48.6 °F 29.64 in South 2.6 mph 3.5 mph 96 % 0.00 in
10:22 49.9 °F 48.8 °F 29.63 in SSW 5.0 mph 7.0 mph 96 % 0.00 in
10:27 49.9 °F 48.5 °F 29.63 in WSW 3.1 mph 6.9 mph 95 % 0.00 in
10:32 50.0 °F 48.6 °F 29.63 in West 6.4 mph 9.2 mph 95 % 0.00 in
10:37 50.1 °F 48.7 °F 29.64 in SW 4.2 mph 4.6 mph 95 % 0.00 in
10:42 50.1 °F 48.4 °F 29.63 in SW 1.2 mph 6.9 mph 94 % 0.00 in
10:47 50.1 °F 48.4 °F 29.63 in WSW 1.3 mph 6.9 mph 94 % 0.00 in
10:53 50.1 °F 48.2 °F 29.63 in SW 1.2 mph 3.5 mph 93 % 0.00 in
10:58 50.1 °F 48.2 °F 29.63 in SSW 3.6 mph 5.0 mph 93 % 0.00 in
11:03 50.1 °F 48.2 °F 29.63 in SW 2.9 mph 4.6 mph 93 % 0.00 in
11:08 50.2 °F 48.3 °F 29.62 in West 0.7 mph 3.5 mph 93 % 0.00 in
11:13 50.4 °F 48.5 °F 29.62 in SSW 2.9 mph 7.0 mph 93 % 0.00 in
11:18 50.6 °F 48.7 °F 29.62 in WSW 2.2 mph 4.6 mph 93 % 0.00 in
11:23 51.2 °F 49.5 °F 29.62 in SSW 2.4 mph 4.6 mph 94 % 0.00 in
11:28 51.9 °F 50.2 °F 29.61 in SW 4.6 mph 6.0 mph 94 % 0.00 in
11:33 52.7 °F 50.7 °F 29.61 in SSW 2.7 mph 7.0 mph 93 % 0.00 in
11:38 53.3 °F 50.7 °F 29.61 in SW 3.8 mph 9.2 mph 91 % 0.00 in
11:43 53.7 °F 50.8 °F 29.60 in SSW 5.9 mph 8.1 mph 90 % 0.00 in
11:48 54.0 °F 50.8 °F 29.60 in SW 2.6 mph 4.6 mph 89 % 0.00 in
11:53 54.3 °F 51.1 °F 29.60 in SSW 5.0 mph 5.8 mph 89 % 0.00 in
11:58 54.6 °F 51.1 °F 29.59 in SW 2.8 mph 9.2 mph 88 % 0.00 in
12:03 54.9 °F 51.4 °F 29.60 in WSW 5.9 mph 10.4 mph 88 % 0.00 in
12:08 55.2 °F 51.7 °F 29.59 in SW 4.0 mph 6.0 mph 88 % 0.00 in
12:14 55.8 °F 52.3 °F 29.58 in SW 3.6 mph 3.6 mph 88 % 0.00 in
12:19 56.3 °F 52.8 °F 29.59 in WSW 1.5 mph 3.5 mph 88 % 0.00 in
12:24 56.7 °F 52.9 °F 29.58 in South 8.0 mph 10.4 mph 87 % 0.00 in
12:29 56.9 °F 52.4 °F 29.58 in SSW 6.2 mph 9.2 mph 85 % 0.00 in
12:34 56.8 °F 52.0 °F 29.58 in West 3.6 mph 8.0 mph 84 % 0.00 in
12:39 56.9 °F 52.1 °F 29.58 in West 0.2 mph 3.5 mph 84 % 0.00 in
12:44 56.9 °F 52.1 °F 29.58 in West 3.4 mph 5.0 mph 84 % 0.00 in
12:49 56.9 °F 51.8 °F 29.58 in SSW 4.8 mph 8.1 mph 83 % 0.00 in
12:54 56.9 °F 52.1 °F 29.57 in WSW 3.8 mph 6.9 mph 84 % 0.00 in
12:59 56.9 °F 52.1 °F 29.57 in WSW 1.2 mph 3.0 mph 84 % 0.00 in
13:04 57.0 °F 52.2 °F 29.57 in WSW 2.5 mph 4.6 mph 84 % 0.00 in
13:09 57.1 °F 52.3 °F 29.56 in SSW 0.6 mph 2.3 mph 84 % 0.00 in
13:14 57.1 °F 52.0 °F 29.56 in SSW 4.4 mph 6.9 mph 83 % 0.00 in
13:19 57.2 °F 52.1 °F 29.56 in SW 3.4 mph 4.6 mph 83 % 0.00 in
13:24 57.2 °F 52.1 °F 29.55 in SW 3.6 mph 4.6 mph 83 % 0.00 in
13:29 57.2 °F 52.1 °F 29.55 in SSW 3.7 mph 8.1 mph 83 % 0.00 in
13:34 57.2 °F 52.1 °F 29.55 in SSW 2.7 mph 6.0 mph 83 % 0.00 in
13:40 57.2 °F 52.1 °F 29.55 in SSW 5.9 mph 9.2 mph 83 % 0.00 in
13:45 57.2 °F 52.1 °F 29.55 in South 4.7 mph 6.9 mph 83 % 0.00 in
13:50 57.3 °F 52.5 °F 29.54 in SW 3.6 mph 9.2 mph 84 % 0.00 in
13:55 57.2 °F 52.1 °F 29.54 in SW 5.7 mph 8.1 mph 83 % 0.00 in
14:00 57.2 °F 52.1 °F 29.54 in SW 4.6 mph 8.1 mph 83 % 0.00 in
14:05 57.3 °F 52.2 °F 29.53 in SSW 4.0 mph 11.0 mph 83 % 0.00 in
14:10 57.2 °F 52.1 °F 29.53 in WSW 6.1 mph 9.2 mph 83 % 0.00 in
14:15 57.2 °F 52.1 °F 29.53 in SSW 5.6 mph 8.1 mph 83 % 0.00 in
14:20 57.0 °F 51.6 °F 29.52 in SSW 5.8 mph 9.2 mph 82 % 0.00 in
14:25 56.9 °F 51.8 °F 29.52 in SW 5.8 mph 9.2 mph 83 % 0.00 in
14:30 56.8 °F 51.7 °F 29.52 in SSW 3.7 mph 5.8 mph 83 % 0.00 in
14:35 56.6 °F 51.5 °F 29.52 in SW 7.9 mph 18.4 mph 83 % 0.00 in
14:40 56.5 °F 51.4 °F 29.53 in SW 3.9 mph 6.9 mph 83 % 0.00 in
14:45 56.4 °F 51.6 °F 29.52 in SSW 3.5 mph 5.8 mph 84 % 0.00 in
14:50 56.3 °F 51.5 °F 29.52 in SSW 3.8 mph 6.9 mph 84 % 0.00 in
14:55 56.3 °F 51.5 °F 29.52 in WSW 3.4 mph 9.2 mph 84 % 0.00 in
15:00 56.3 °F 51.8 °F 29.51 in SW 4.0 mph 9.0 mph 85 % 0.00 in
15:06 56.4 °F 51.9 °F 29.51 in SW 5.0 mph 9.0 mph 85 % 0.00 in
15:11 56.6 °F 52.1 °F 29.51 in South 1.9 mph 5.0 mph 85 % 0.00 in
15:16 56.7 °F 52.2 °F 29.51 in SSW 3.0 mph 10.0 mph 85 % 0.00 in
15:21 56.8 °F 52.0 °F 29.51 in WSW 3.9 mph 8.1 mph 84 % 0.00 in
15:26 56.9 °F 52.1 °F 29.51 in SW 6.5 mph 10.4 mph 84 % 0.00 in
15:31 57.0 °F 52.2 °F 29.51 in South 4.5 mph 6.9 mph 84 % 0.00 in
15:36 57.0 °F 52.2 °F 29.50 in SW 2.4 mph 5.8 mph 84 % 0.00 in
15:41 57.1 °F 52.3 °F 29.50 in SSW 4.6 mph 5.8 mph 84 % 0.00 in
15:46 57.1 °F 52.3 °F 29.51 in SSW 1.7 mph 5.8 mph 84 % 0.00 in
15:51 57.2 °F 52.4 °F 29.51 in SSW 4.5 mph 8.0 mph 84 % 0.00 in
15:56 57.2 °F 52.4 °F 29.51 in South 4.5 mph 9.2 mph 84 % 0.00 in
16:01 57.2 °F 52.4 °F 29.51 in SW 3.3 mph 4.6 mph 84 % 0.00 in
16:06 57.2 °F 52.4 °F 29.50 in South 2.4 mph 5.0 mph 84 % 0.00 in
16:11 57.2 °F 52.4 °F 29.51 in WSW 2.4 mph 4.6 mph 84 % 0.00 in
16:17 57.2 °F 52.4 °F 29.51 in Calm   3.5 mph 84 % 0.00 in
16:22 57.1 °F 52.3 °F 29.51 in WSW 0.8 mph 2.3 mph 84 % 0.00 in
16:27 57.1 °F 52.3 °F 29.51 in SSW 1.5 mph 4.6 mph 84 % 0.00 in
16:32 57.0 °F 52.2 °F 29.51 in SSW 0.4 mph 2.3 mph 84 % 0.00 in
16:37 56.9 °F 52.1 °F 29.51 in Calm     84 % 0.00 in
16:42 56.7 °F 50.9 °F 29.51 in South 0.5 mph 2.3 mph 81 % 0.00 in
16:47 56.3 °F 50.2 °F 29.51 in Calm     80 % 0.00 in
16:52 56.0 °F 49.9 °F 29.52 in Calm     80 % 0.00 in
16:57 55.6 °F 49.5 °F 29.51 in Calm     80 % 0.00 in
17:02 55.4 °F 49.7 °F 29.51 in Calm   1.0 mph 81 % 0.00 in
17:07 55.2 °F 49.8 °F 29.51 in WSW 0.1 mph 2.3 mph 82 % 0.00 in
17:12 55.0 °F 49.9 °F 29.51 in WSW 0.5 mph 2.3 mph 83 % 0.00 in
17:17 54.9 °F 50.2 °F 29.50 in WSW 1.4 mph 2.3 mph 84 % 0.00 in
17:22 54.8 °F 50.4 °F 29.50 in SSW 1.6 mph 3.0 mph 85 % 0.00 in
17:27 54.6 °F 50.2 °F 29.51 in SW 0.1 mph 2.3 mph 85 % 0.00 in
17:32 54.4 °F 50.0 °F 29.51 in SW 3.0 mph 3.5 mph 85 % 0.00 in
17:38 54.3 °F 50.2 °F 29.51 in SW 0.4 mph 2.3 mph 86 % 0.00 in
17:43 54.1 °F 50.0 °F 29.51 in SW 0.6 mph 2.3 mph 86 % 0.00 in
17:48 53.9 °F 49.8 °F 29.51 in SW 0.5 mph 2.3 mph 86 % 0.00 in
17:53 53.7 °F 49.9 °F 29.51 in Calm   1.0 mph 87 % 0.00 in
17:58 53.5 °F 49.7 °F 29.51 in SW 0.1 mph 2.3 mph 87 % 0.00 in
18:03 53.3 °F 49.5 °F 29.51 in SW 1.0 mph 3.5 mph 87 % 0.00 in
18:08 53.1 °F 49.3 °F 29.50 in Calm     87 % 0.00 in
18:13 53.0 °F 49.2 °F 29.50 in SW 0.9 mph 2.3 mph 87 % 0.00 in
18:18 52.9 °F 49.4 °F 29.50 in SSW 1.2 mph 3.5 mph 88 % 0.00 in
18:23 52.8 °F 49.6 °F 29.49 in SSW 1.3 mph 3.5 mph 89 % 0.00 in
18:28 52.8 °F 49.6 °F 29.49 in SSW 2.7 mph 4.0 mph 89 % 0.00 in
18:33 52.7 °F 49.8 °F 29.49 in SSW 3.4 mph 5.8 mph 90 % 0.00 in
18:38 52.8 °F 50.2 °F 29.49 in SSW 2.0 mph 3.5 mph 91 % 0.00 in
18:43 52.8 °F 50.2 °F 29.50 in WSW 2.9 mph 4.6 mph 91 % 0.00 in
18:48 53.0 °F 50.4 °F 29.49 in SW 1.8 mph 3.5 mph 91 % 0.00 in
18:53 53.1 °F 50.5 °F 29.50 in SSW 3.0 mph 4.6 mph 91 % 0.00 in
18:59 53.2 °F 50.6 °F 29.50 in SSW 0.6 mph 5.8 mph 91 % 0.00 in
19:04 53.3 °F 50.7 °F 29.50 in WSW 3.0 mph 3.5 mph 91 % 0.00 in
19:09 53.3 °F 50.7 °F 29.50 in SW 1.6 mph 4.6 mph 91 % 0.00 in
19:14 53.4 °F 50.8 °F 29.50 in SSW 1.4 mph 3.5 mph 91 % 0.00 in
19:19 53.4 °F 50.8 °F 29.50 in SW 1.4 mph 3.5 mph 91 % 0.00 in
19:24 53.4 °F 50.8 °F 29.49 in SSW 0.8 mph 2.0 mph 91 % 0.00 in
19:29 53.4 °F 50.5 °F 29.49 in SW 1.0 mph 2.3 mph 90 % 0.00 in
19:34 53.4 °F 50.5 °F 29.50 in SW 0.7 mph 3.5 mph 90 % 0.00 in
19:39 53.3 °F 50.4 °F 29.50 in SW 1.7 mph 3.5 mph 90 % 0.00 in
19:44 53.2 °F 50.3 °F 29.49 in Calm     90 % 0.00 in
19:49 53.2 °F 50.3 °F 29.49 in Calm   1.2 mph 90 % 0.00 in
19:54 53.1 °F 50.2 °F 29.49 in SW 0.2 mph 1.0 mph 90 % 0.00 in
19:59 53.0 °F 50.1 °F 29.49 in SW 0.9 mph 2.3 mph 90 % 0.00 in
20:04 52.8 °F 49.9 °F 29.49 in Calm     90 % 0.00 in
20:09 52.7 °F 49.8 °F 29.48 in Calm     90 % 0.00 in
20:14 52.6 °F 49.8 °F 29.48 in Calm     90 % 0.00 in
20:19 52.5 °F 49.7 °F 29.48 in Calm     90 % 0.00 in
20:24 52.3 °F 49.5 °F 29.48 in Calm     90 % 0.00 in
20:29 52.1 °F 49.3 °F 29.47 in Calm   1.2 mph 90 % 0.00 in
20:34 52.0 °F 49.2 °F 29.47 in Calm     90 % 0.00 in
20:40 51.9 °F 49.1 °F 29.47 in Calm     90 % 0.00 in
20:45 51.7 °F 48.9 °F 29.47 in Calm     90 % 0.00 in
20:50 51.6 °F 48.8 °F 29.47 in Calm   3.5 mph 90 % 0.00 in
20:55 51.4 °F 48.6 °F 29.47 in WSW 0.2 mph 3.5 mph 90 % 0.00 in
21:00 51.3 °F 48.5 °F 29.47 in WSW 0.5 mph 2.3 mph 90 % 0.00 in
21:05 51.2 °F 48.7 °F 29.47 in SSE 1.1 mph 3.5 mph 91 % 0.00 in
21:10 51.2 °F 48.7 °F 29.47 in SSW 1.4 mph 3.5 mph 91 % 0.00 in
21:15 51.2 °F 49.0 °F 29.47 in SSW 3.4 mph 5.0 mph 92 % 0.00 in
21:20 51.4 °F 49.4 °F 29.47 in SSW 2.7 mph 4.0 mph 93 % 0.00 in
21:25 51.6 °F 49.6 °F 29.47 in WSW 2.9 mph 3.5 mph 93 % 0.00 in
21:30 51.8 °F 50.1 °F 29.46 in WSW 1.7 mph 3.5 mph 94 % 0.00 in
21:35 52.1 °F 50.4 °F 29.46 in WSW 1.8 mph 3.5 mph 94 % 0.00 in
21:45 52.5 °F 50.8 °F 29.45 in WSW 0.2 mph 3.5 mph 94 % 0.00 in
21:50 52.8 °F 51.1 °F 29.45 in Calm     94 % 0.00 in
21:55 53.0 °F 51.3 °F 29.46 in WSW 0.3 mph 1.2 mph 94 % 0.00 in
22:00 53.1 °F 51.4 °F 29.46 in Calm   1.0 mph 94 % 0.00 in
22:06 53.2 °F 51.5 °F 29.46 in Calm   3.5 mph 94 % 0.00 in
22:11 53.2 °F 51.2 °F 29.46 in Calm   2.0 mph 93 % 0.00 in
22:16 53.3 °F 51.3 °F 29.45 in West 1.0 mph 2.0 mph 93 % 0.00 in
22:21 53.3 °F 51.3 °F 29.45 in Calm     93 % 0.00 in
22:26 53.3 °F 51.3 °F 29.44 in Calm     93 % 0.00 in
22:31 53.2 °F 51.3 °F 29.44 in Calm     93 % 0.00 in
22:36 53.2 °F 50.9 °F 29.44 in West 1.0 mph 2.0 mph 92 % 0.00 in
22:41 53.0 °F 50.7 °F 29.44 in WSW 2.0 mph 6.0 mph 92 % 0.00 in
22:46 52.9 °F 50.6 °F 29.42 in SSW 2.1 mph 3.5 mph 92 % 0.00 in
22:51 52.9 °F 50.6 °F 29.43 in SSW 3.0 mph 6.0 mph 92 % 0.00 in
22:56 53.0 °F 51.0 °F 29.43 in SSW 1.0 mph 6.0 mph 93 % 0.00 in
23:01 53.1 °F 51.1 °F 29.42 in South 0.7 mph 2.3 mph 93 % 0.00 in
23:06 53.2 °F 51.5 °F 29.42 in SSW 3.0 mph 6.0 mph 94 % 0.00 in
23:11 53.3 °F 51.6 °F 29.42 in SW 3.0 mph 7.0 mph 94 % 0.00 in
23:16 53.4 °F 51.7 °F 29.42 in SW 5.0 mph 8.0 mph 94 % 0.00 in
23:21 53.5 °F 51.8 °F 29.41 in SSW 2.0 mph 7.0 mph 94 % 0.00 in
23:26 53.6 °F 52.3 °F 29.41 in SSW 3.0 mph 7.0 mph 95 % 0.00 in
23:31 53.8 °F 52.4 °F 29.41 in SW 2.0 mph 5.8 mph 95 % 0.00 in
23:36 54.0 °F 52.6 °F 29.41 in SW 3.0 mph 7.0 mph 95 % 0.00 in
23:41 54.1 °F 52.7 °F 29.41 in West 5.0 mph 7.0 mph 95 % 0.00 in
23:46 54.2 °F 52.8 °F 29.41 in West 5.0 mph 9.0 mph 95 % 0.00 in
23:51 54.3 °F 52.9 °F 29.40 in SW 3.0 mph 7.0 mph 95 % 0.00 in
23:56 54.3 °F 52.9 °F 29.40 in SW 3.0 mph 7.0 mph 95 % 0.00 in
Crab Meadow Weather
Compliments of Weather Underground - 3 mb

Script developed by  Jim McMurry - jmcmurry@mwt.net Adapted for the template by  Wim van der Kuil - Leuven-Template.eu

One Inch of Rain: One inch of rain over one square mile equals to 17.4 million gallons of water.